This demonstration page uses our WeatherBlox Daily Observations layout. Learn more.

Left ArrowRight Arrow

Hourly Observations for August 30, 2020

Temp ( °F °C ) Dew Point ( °F °C ) Humidity (%) Winds ( mph kmh ) Pressure ( in mb ) Visibility ( mi km ) Precip ( " mm )
12:15 am 00:15 Clear 64 18 64 18 100 100 N 6 9 29.87 1012 10 16.0934 N/A
12:35 am 00:35 Clear 64 18 64 18 100 100 N 8 13 29.87 1012 10 16.0934 N/A
12:55 am 00:55 Clear 63 17 63 17 100 100 N 5 7 29.89 1012 10 16.0934 N/A
1:15 am 01:15 Clear 61 16 61 16 100 100 N 3 6 29.88 1012 10 16.0934 N/A
1:35 am 01:35 Clear 61 16 61 16 100 100 N 5 7 29.89 1012 10 16.0934 N/A
1:55 am 01:55 Clear 59 15 59 15 100 100 N 7 11 29.89 1012 10 16.0934 N/A
2:15 am 02:15 Clear 59 15 59 15 100 100 N 7 11 29.88 1012 10 16.0934 N/A
2:35 am 02:35 Clear 57 14 57 14 100 100 Calm 29.89 1012 10 16.0934 N/A
2:55 am 02:55 Clear 57 14 57 14 100 100 Calm 29.89 1012 10 16.0934 N/A
3:15 am 03:15 Clear 55 13 55 13 100 100 Calm 29.9 1013 10 16.0934 N/A
3:35 am 03:35 Clear 57 14 57 14 100 100 Calm 29.9 1012 10 16.0934 N/A
3:55 am 03:55 Clear 57 14 57 14 100 100 NNE 3 6 29.9 1012 10 16.0934 N/A
4:15 am 04:15 Clear 54 12 54 12 100 100 Calm 29.9 1013 10 16.0934 N/A
4:35 am 04:35 Clear 55 13 55 13 100 100 Calm 29.9 1013 10 16.0934 N/A
4:55 am 04:55 Clear 52 11 52 11 100 100 Calm 29.91 1013 10 16.0934 N/A
5:15 am 05:15 Clear 54 12 54 12 100 100 Calm 29.9 1013 10 16.0934 N/A
5:35 am 05:35 Clear 54 12 54 12 100 100 Calm 29.91 1013 10 16.0934 N/A
5:55 am 05:55 Clear 52 11 52 11 100 100 Calm 29.93 1013 10 16.0934 N/A
6:15 am 06:15 Clear 54 12 54 12 100 100 Calm 29.92 1013 10 16.0934 N/A
6:35 am 06:35 Clear 52 11 52 11 100 100 Calm 29.93 1013 10 16.0934 N/A
6:55 am 06:55 Mostly Cloudy 52 11 52 11 100 100 Calm 29.92 1013 0.75 1.207005 N/A
7:15 am 07:15 Mostly Cloudy 52 11 52 11 100 100 Calm 29.93 1013 0.25 0.402335 N/A
7:35 am 07:35 Mostly Cloudy 52 11 52 11 100 100 Calm 29.94 1014 N/A N/A
7:55 am 07:55 Sunny 52 11 52 11 100 100 Calm 29.94 1014 10 16.0934 N/A
8:31 am 08:31 Sunny 57 14 57 14 100 100 Calm 29.94 1014 7 11.26538 N/A
9:10 am 09:10 Sunny 63 17 63 17 100 100 NE 3 6 29.93 1013 10 16.0934 N/A
9:50 am 09:50 Sunny 66 19 64 18 94 94 NNE 5 7 29.93 1014 10 16.0934 N/A
10:35 am 10:35 Sunny 68 20 64 18 88 88 ENE 3 6 29.95 1014 10 16.0934 N/A
10:55 am 10:55 Sunny 70 21 66 19 88 88 E 5 7 29.96 1014 10 16.0934 N/A
11:15 am 11:15 Sunny 72 22 64 18 78 78 E 5 7 29.94 1014 10 16.0934 N/A
11:35 am 11:35 Sunny 72 22 63 17 73 73 SE 5 7 29.94 1014 10 16.0934 N/A
11:55 am 11:55 Sunny 73 23 63 17 69 69 NE 6 9 29.94 1014 10 16.0934 N/A
12:15 pm 12:15 Sunny 73 23 63 17 69 69 ESE 5 7 29.94 1014 10 16.0934 N/A
12:35 pm 12:35 Partly Cloudy 73 23 63 17 69 69 ENE 6 9 29.93 1014 10 16.0934 N/A
12:55 pm 12:55 Partly Cloudy 73 23 61 16 65 65 Calm 29.91 1013 10 16.0934 N/A
1:15 pm 13:15 Sunny 73 23 63 17 69 69 E 3 6 29.9 1012 10 16.0934 N/A
1:35 pm 13:35 Sunny 73 23 61 16 65 65 Calm 29.9 1012 10 16.0934 N/A
1:55 pm 13:55 Partly Cloudy 73 23 63 17 69 69 ESE 3 6 29.9 1012 10 16.0934 N/A
2:15 pm 14:15 Partly Cloudy 75 24 63 17 65 65 Calm 29.89 1012 10 16.0934 N/A
2:35 pm 14:35 Partly Cloudy 75 24 63 17 65 65 Calm 29.89 1012 10 16.0934 N/A
2:55 pm 14:55 Mostly Cloudy 75 24 63 17 65 65 Calm 29.88 1012 10 16.0934 N/A
3:15 pm 15:15 Partly Cloudy 75 24 63 17 65 65 Calm 29.87 1011 10 16.0934 N/A
3:35 pm 15:35 Sunny 73 23 63 17 69 69 Calm 29.87 1011 10 16.0934 N/A
3:55 pm 15:55 Sunny 73 23 64 18 74 74 Calm 29.86 1011 10 16.0934 N/A
4:15 pm 16:15 Sunny 73 23 64 18 74 74 Calm 29.86 1011 10 16.0934 N/A
4:35 pm 16:35 Sunny 73 23 64 18 74 74 Calm 29.86 1011 10 16.0934 N/A
4:55 pm 16:55 Partly Cloudy 73 23 64 18 74 74 Calm 29.85 1011 10 16.0934 N/A
5:15 pm 17:15 Partly Cloudy 75 24 64 18 69 69 E 3 6 29.86 1011 10 16.0934 N/A
5:35 pm 17:35 Mostly Cloudy 72 22 64 18 78 78 SE 3 6 29.85 1011 10 16.0934 N/A
5:55 pm 17:55 Mostly Cloudy 72 22 64 18 78 78 Calm 29.85 1011 10 16.0934 N/A
6:15 pm 18:15 Partly Cloudy 73 23 64 18 74 74 E 6 9 29.85 1011 10 16.0934 N/A
6:35 pm 18:35 Partly Cloudy 73 23 66 19 78 78 Calm 29.85 1011 10 16.0934 N/A
6:55 pm 18:55 Partly Cloudy 72 22 64 18 78 78 Calm 29.85 1011 10 16.0934 N/A
7:15 pm 19:15 Sunny 72 22 66 19 83 83 Calm 29.85 1011 10 16.0934 N/A
7:35 pm 19:35 Sunny 70 21 66 19 88 88 E 5 7 29.87 1011 10 16.0934 N/A
7:55 pm 19:55 Sunny 68 20 68 20 100 100 Calm 29.87 1011 10 16.0934 N/A
8:15 pm 20:15 Sunny 66 19 66 19 100 100 Calm 29.87 1012 10 16.0934 N/A
8:35 pm 20:35 Clear 64 18 64 18 100 100 Calm 29.87 1012 10 16.0934 N/A
8:55 pm 20:55 Clear 63 17 63 17 100 100 Calm 29.88 1012 10 16.0934 N/A
9:15 pm 21:15 Clear 63 17 63 17 100 100 E 6 9 29.88 1012 10 16.0934 N/A
9:35 pm 21:35 Clear 61 16 61 16 100 100 ENE 3 6 29.88 1012 10 16.0934 N/A
9:55 pm 21:55 Clear 61 16 61 16 100 100 ENE 6 9 29.88 1012 10 16.0934 N/A
10:15 pm 22:15 Clear 61 16 61 16 100 100 E 3 6 29.88 1012 10 16.0934 N/A
10:35 pm 22:35 Clear 59 15 59 15 100 100 E 6 9 29.88 1012 10 16.0934 N/A
10:55 pm 22:55 Clear 59 15 59 15 100 100 ENE 6 9 29.88 1012 10 16.0934 N/A
11:15 pm 23:15 Clear 59 15 59 15 100 100 ENE 6 9 29.88 1012 10 16.0934 N/A
11:35 pm 23:35 Clear 59 15 59 15 100 100 ENE 6 9 29.88 1012 10 16.0934 N/A
11:55 pm 23:55 Clear 57 14 57 14 100 100 ENE 6 9 29.89 1012 10 16.0934 N/A

Powered by AerisWeather